Regional Weather Roundup
Issued by NWS Green Bay, WI

Home | Current Version | Previous Version | Graphics & Text | Print | Product List | Glossary Off
Versions: 1 2 3 4 5 6 7 8 9 10 11 12 13 14 15 16 17 18 19 20 21 22 23 24 25 26 27 28 29 30 31 32 33 34 35 36 37 38 39 40 41 42 43 44 45 46 47 48 49 50

000
ASUS43 KGRB 292000
RWRGRB

NORTH-CENTRAL AND NORTHEAST WISCONSIN REGIONAL WEATHER ROUNDUP
NATIONAL WEATHER SERVICE GREEN BAY WI
300 PM CDT FRI MAY 29 2015

WIZ005-009-010>012-018-019-292100-
NORTH CENTRAL WISCONSIN

CITY           SKY/WX    TMP DP  RH WIND       PRES   REMARKS
IRONWOOD       CLOUDY    64  61  88 NW12      29.87R
MANITOWISH WTR NOT AVBL
ARBOR VITAE    NOT AVBL
EAGLE RIVER    NOT AVBL
LAND O LAKES   NOT AVBL
RHINELANDER    CLOUDY    71  61  70 SW10      29.91F
PHILLIPS       NOT AVBL
ANTIGO         NOT AVBL
TOMAHAWK       NOT AVBL
MERRILL        NOT AVBL
$$

WIZ013-073-292100-
NORTHEAST WISCONSIN

CITY           SKY/WX    TMP DP  RH WIND       PRES   REMARKS
IRON MOUNTAIN  CLOUDY    79  59  50 SW10G22   29.85F
MARINETTE      CLOUDY    75  63  64 SW13      29.87F
$$

WIZ017-030-035>037-045-292100-
CENTRAL WISCONSIN

CITY           SKY/WX    TMP DP  RH WIND       PRES   REMARKS
MEDFORD        NOT AVBL
WAUSAU         CLOUDY    75  62  64 VRB6      29.87F
MOSINEE        MOSUNNY   77  63  61 SW9       29.89F
MARSHFIELD     CLOUDY    77  63  61 W8        29.88F
WISC RAPIDS    CLOUDY    79  60  52 S9        29.89F
STEVENS POINT  NOT AVBL
WAUPACA        NOT AVBL
SHAWANO        NOT AVBL
CLINTONVILLE   NOT AVBL
$$

WIZ038-039-048-051-292100-
FOX VALLEY

CITY           SKY/WX    TMP DP  RH WIND       PRES   REMARKS
NWS GREEN BAY  CLOUDY    78  65  63 SW10      29.89F
APPLETON       NOT AVBL
OSHKOSH        TSTM      70  64  81 W10G29    29.91F VSB 3/4
FOND DU LAC    CLOUDY    76  65  68 S20       29.91F
$$

WIZ022-050-052-292100-
EAST CENTRAL WISCONSIN

CITY           SKY/WX    TMP DP  RH WIND       PRES   REMARKS
STURGEON BAY   PTSUNNY   72  63  73 S15       29.93F
MANITOWOC      NOT AVBL
SHEBOYGAN      LGT RAIN  68  64  87 S9        29.94F FOG
$$

LMZ563-521-522-541>543-292100-
LAKESHORE

STATION/POSITION TIME  TEMP    WIND        PRES    VSBY  WAVE
                       AIR SEA DIR/SP/G                  HT/PER
                 (UTC) (F)     (DEG/KT/KT) (MB)    (MI)  (FT/S)
SHEBOYGAN LKSHOR 1900   54     170/ 18/ 20 1014.3F
KEWAUNEE LKSHORE 1900   51     180/ 11/ 14 1013.1F
NORTHPORT PIER   1900   62     140/ 10/ 16 1013.2F
N MID LAKE BUOY  1850   42 37  190/  8/ 10 1014.5F         1/ 3
SISTER BAY LKSHO 1918   71     150/ 14/ 18   N/A
CHAMBERS ISLAND  1900   69     130/  6/ 11 1012.9F
MENOMINEE LKSHOR 1900   61     150/  7/ 12 1013.5F
$$


USA.gov is the U.S. government's official web portal to all federal, state and local government web resources and services.